Weather History for Modesto, CA

Change the Weather History Date:

Tuesday, March 26, 2013

  Actual Average Record
Temperature  
Mean Temperature 61 °F -  
Max Temperature 73 °F 70 °F 87 °F (1988)
Min Temperature 49 °F 47 °F 34 °F (1936)
Degree Days  
Heating Degree Days 4 7  
Month to date heating degree days 165 205  
Since 1 July heating degree days 2078 1973  
Cooling Degree Days 0 0  
Month to date cooling degree days 0 0  
Year to date cooling degree days 0 0  
Growing Degree Days 11 (Base 50)    
Moisture  
Dew Point 44 °F    
Average Humidity 55    
Maximum Humidity 74    
Minimum Humidity 35    
Precipitation  
Precipitation 0.00 in 0.05 in 0.71 in (1993)
Month to date precipitation 0.17 1.80  
Year to date precipitation 1.76 6.79  
Since 1 July precipitation 7.64 11.15  
Snow  
Snow 0.00 in - - ()
Month to date snowfall 0.0  
Since 1 July snowfall 0.0  
Snow Depth -    
Sea Level Pressure  
Sea Level Pressure 29.95 in    
Wind  
Wind Speed 8 mph (NNW)    
Max Wind Speed 13 mph    
Max Gust Speed 134 mph    
Visibility 10 miles    
Events      
T = Trace of Precipitation, MM = Missing Value Source: NWS Daily Summary

Daily Weather History Graph

Daily Weather History Graph

Search for Another Location

Airport:

Trip Planner

Search our weather history database for the weather conditions in past years. The results will help you decide how hot, cold, wet, or windy it might be!

Date:

Astronomy

Mar. 26, 2013 Rise Set
Actual Time 6:57 AM PDT 7:21 PM PDT
Civil Twilight 6:31 AM PDT 7:47 PM PDT
Nautical Twilight 6:00 AM PDT 8:18 PM PDT
Astronomical Twilight 5:29 AM PDT 8:50 PM PDT
Moon 7:03 PM PDT (3/26) 6:16 AM PDT (3/26)
Length of Visible Light 13h 16m
Length of Day
12h 23m
Full, 100% of the Moon is Illuminated
Mar 26
Full
Mar 27
Full
Apr 2
Last Quarter
Apr 10
New
Apr 18
First Quarter

Hourly Weather History & Observations

Time (PDT) Temp. Dew Point Humidity Pressure Visibility Wind Dir Wind Speed Gust Speed Precip Events Conditions
12:15 AM 51.8 °F 44.6 °F 76% 29.95 in 10.0 mi NNW 9.2 mph 133.5 mph N/A   Squalls
12:53 AM 51.1 °F 43.0 °F 74% 29.96 in 10.0 mi NNW 6.9 mph - N/A   Clear
1:53 AM 50.0 °F 43.0 °F 77% 29.96 in 10.0 mi NNW 5.8 mph - N/A   Scattered Clouds
2:53 AM 50.0 °F 43.0 °F 77% 29.95 in 10.0 mi NNW 6.9 mph - N/A   Scattered Clouds
3:53 AM 51.1 °F 43.0 °F 74% 29.95 in 10.0 mi NNW 12.7 mph - N/A   Mostly Cloudy
4:53 AM 50.0 °F 43.0 °F 77% 29.95 in 10.0 mi NNW 6.9 mph - N/A   Partly Cloudy
5:53 AM 50.0 °F 43.0 °F 77% 29.94 in 10.0 mi North 6.9 mph - N/A   Mostly Cloudy
6:53 AM 50.0 °F 43.0 °F 77% 29.95 in 10.0 mi NNW 4.6 mph - N/A   Mostly Cloudy
7:53 AM 51.1 °F 43.0 °F 74% 29.97 in 10.0 mi NNW 8.1 mph - N/A   Mostly Cloudy
8:53 AM 53.1 °F 43.0 °F 69% 29.97 in 10.0 mi NNW 9.2 mph - N/A   Mostly Cloudy
9:53 AM 55.0 °F 43.0 °F 64% 29.99 in 10.0 mi NNW 9.2 mph - N/A   Overcast
11:53 AM 61.0 °F 44.1 °F 54% 29.99 in 10.0 mi Variable 4.6 mph - N/A   Overcast
12:53 PM 66.0 °F 45.0 °F 47% 29.98 in 10.0 mi Variable 5.8 mph - N/A   Partly Cloudy
1:53 PM 69.1 °F 45.0 °F 42% 29.96 in 10.0 mi Variable 6.9 mph - N/A   Clear
2:53 PM 71.1 °F 46.0 °F 41% 29.94 in 10.0 mi Variable 3.5 mph - N/A   Clear
3:53 PM 71.1 °F 45.0 °F 39% 29.93 in 10.0 mi North 9.2 mph - N/A   Clear
4:53 PM 72.0 °F 43.0 °F 35% 29.91 in 10.0 mi WNW 5.8 mph - N/A   Clear
5:53 PM 72.0 °F 43.0 °F 35% 29.90 in 10.0 mi NW 5.8 mph - N/A   Clear
6:53 PM 68.0 °F 45.0 °F 43% 29.90 in 10.0 mi NW 9.2 mph - N/A   Clear
7:53 PM 64.9 °F 44.1 °F 47% 29.91 in 10.0 mi NW 5.8 mph - N/A   Clear
8:53 PM 62.1 °F 44.1 °F 52% 29.92 in 10.0 mi NW 6.9 mph - N/A   Clear
9:53 PM 60.1 °F 46.9 °F 62% 29.94 in 10.0 mi NW 8.1 mph - N/A   Clear
10:53 PM 59.0 °F 48.0 °F 67% 29.94 in 10.0 mi North 8.1 mph - N/A   Overcast
11:53 PM 57.9 °F 46.9 °F 67% 29.94 in 10.0 mi North 8.1 mph - N/A   Mostly Cloudy